Location: Buckeye Ditch
(40.9104°N, 122.9517°W)
Time: 19:32:18
(UTC+00:00)

Vanguard 1 - Pass Details

Date: 26 May 2025
Orbit: 649 x 3822 km, 34.3° (Epoch: 15 June)

Event Time Altitude Azimuth Distance (km) Brightness Sun altitude
Rises 03:49:47 0° 274° (W) 7,187 15.7 -3.7°
Reaches altitude 10° 03:55:21 10° 271° (W) 5,726 15.0 -4.5°
Maximum altitude 04:10:10 54° 200° (SSW) 2,146 11.7 -6.9°
Drops below altitude 10° 04:18:11 10° 125° (SE) 3,216 12.0 -8.1°
Enters shadow 04:18:19 - 125° (SE) 3,256 12.0 -8.1°
